Overview Statistics Trail Chart Weather Telemetry Raw packets
 

This is the latest recevied weather packets stored in our database for station/object WX5KDM. If no packets are shown the sender has not sent any weather packets the latest 10 day(s).

<< 59 60 61 62 63 64 65 >>
Time Temp. Humidity Pressure Rain* Wind** Luminosity Snow
1788213594 35° C 52% 1017.6 hPa 0 mm - - -
1788213290 35.56° C 52% 1017.4 hPa 0 mm - - -
1788212986 35.56° C 52% 1017.4 hPa 0 mm - - -
1788212683 35.56° C 51% 1017.6 hPa 0 mm - - -
1788212378 34.44° C 53% 1017.7 hPa 0 mm - - -
1788212075 35° C 53% 1017.7 hPa 0 mm - - -
1788211775 - - - 0 mm - - -
1788211471 - - - 0 mm - - -
1788211171 36.11° C 49% 1017.8 hPa 0 mm - - -
1788210866 36.11° C 49% 1017.8 hPa 0 mm - - -
1788210560 36.67° C 49% 1017.8 hPa 0 mm - - -
1788210255 36.67° C 48% 1017.9 hPa 0 mm - - -
1788209951 36.67° C 48% 1017.8 hPa 0 mm - - -
1788209647 36.11° C 47% 1017.9 hPa 0 mm - - -
1788209347 36.11° C 51% 1017.9 hPa 0 mm - - -
1788209046 35.56° C 51% 1018 hPa 0 mm - - -
1788208740 35.56° C 52% 1017.9 hPa 0 mm - - -
1788208435 35.56° C 48% 1018 hPa 0 mm - - -
1788208133 35.56° C 50% 1018 hPa 0 mm - - -
1788207828 35.56° C 51% 1018.2 hPa 0 mm - - -
1788207528 36.11° C 51% 1018 hPa 0 mm - - -
1788207226 35.56° C 51% 1018.3 hPa 0 mm - - -
1788206923 35° C 53% 1018.4 hPa 0 mm - - -
1788206617 35.56° C 52% 1018.4 hPa 0 mm - - -
1788206312 35° C 52% 1018.6 hPa 0 mm - - -

* Rain latest hour (hover to see other rain measurements)
** Current wind speed in m/s (hover to see current wind gust speed)